• In Uzbekistan
  • List of Countries
  • For 7 days
  • Water Temperature
  • Satellite Maps
  • Weather Map
  • Weather Widgets
  • user-avatar
    Login

    Hourly Weather Dzhalalabad

    Today, 18 November, Sunday

    Time Temperature Precipitation Wind Pressure Humidity
    00:00 +6°C° 0 mm 2 mps 695 mmHg 34%
    01:00 +6°C° 0 mm 2 mps 695 mmHg 35%
    02:00 +5°C° 0 mm 2 mps 695 mmHg 35%
    03:00 +5°C° 0 mm 2 mps 695 mmHg 35%
    04:00 +5°C° 0 mm 2 mps 695 mmHg 36%
    05:00 +4°C° 0 mm 2 mps 696 mmHg 36%
    06:00 +5°C° 0 mm 2 mps 696 mmHg 36%
    07:00 +5°C° 0 mm 2 mps 696 mmHg 36%
    08:00 +5°C° 0 mm 2 mps 697 mmHg 37%
    09:00 +7°C° 0 mm 2 mps 696 mmHg 34%
    10:00 +9°C° 0 mm 1 mps 696 mmHg 32%
    11:00 +11°C° 0 mm 1 mps 696 mmHg 29%
    12:00 +12°C° 0 mm 1 mps 695 mmHg 29%
    13:00 +12°C° 0 mm 1 mps 695 mmHg 29%
    14:00 +12°C° 0 mm 1 mps 695 mmHg 29%
    15:00 +11°C° 0 mm 1 mps 695 mmHg 32%
    16:00 +10°C° 0 mm 1 mps 695 mmHg 34%
    17:00 +9°C° 0 mm 1 mps 695 mmHg 37%
    18:00 +9°C° 0 mm 1 mps 695 mmHg 38%
    19:00 +8°C° 0 mm 1 mps 696 mmHg 39%
    20:00 +8°C° 0 mm 1 mps 696 mmHg 40%
    21:00 +8°C° 0 mm 1 mps 696 mmHg 41%
    22:00 +8°C° 0 mm 1 mps 696 mmHg 41%
    23:00 +7°C° 0 mm 1 mps 696 mmHg 42%

    Tomorrow, 19 November, Monday

    Time Temperature Precipitation Wind Pressure Humidity
    00:00 +7°C° 0 mm 1 mps 696 mmHg 43%
    01:00 +7°C° 0 mm 1 mps 696 mmHg 44%
    02:00 +7°C° 0 mm 1 mps 696 mmHg 44%
    03:00 +7°C° 0 mm 1 mps 696 mmHg 45%
    04:00 +7°C° 0 mm 1 mps 696 mmHg 45%
    05:00 +7°C° 0 mm 1 mps 696 mmHg 46%
    06:00 +7°C° 0 mm 1 mps 696 mmHg 46%
    07:00 +6°C° 0 mm 2 mps 697 mmHg 46%
    08:00 +6°C° 0 mm 2 mps 697 mmHg 46%
    09:00 +8°C° 0 mm 2 mps 697 mmHg 42%
    10:00 +9°C° 0 mm 2 mps 696 mmHg 39%
    11:00 +12°C° 0 mm 2 mps 696 mmHg 35%
    12:00 +13°C° 0 mm 2 mps 696 mmHg 34%
    13:00 +13°C° 0 mm 2 mps 695 mmHg 32%
    14:00 +14°C° 0 mm 2 mps 695 mmHg 31%
    15:00 +13°C° 0 mm 2 mps 695 mmHg 33%
    16:00 +12°C° 0 mm 1 mps 695 mmHg 35%
    17:00 +10°C° 0 mm 1 mps 695 mmHg 37%
    18:00 +10°C° 0 mm 1 mps 695 mmHg 38%
    19:00 +9°C° 0 mm 2 mps 696 mmHg 38%
    20:00 +8°C° 0 mm 2 mps 696 mmHg 39%
    21:00 +8°C° 0 mm 2 mps 695 mmHg 39%
    22:00 +8°C° 0 mm 2 mps 695 mmHg 39%
    23:00 +7°C° 0 mm 2 mps 695 mmHg 40%

    Day after tomorrow, 20 November, Tuesday

    Time Temperature Precipitation Wind Pressure Humidity
    00:00 +7°C° 0 mm 2 mps 695 mmHg 40%
    01:00 +7°C° 0 mm 2 mps 695 mmHg 40%
    02:00 +7°C° 0 mm 1 mps 695 mmHg 41%
    03:00 +7°C° 0 mm 1 mps 695 mmHg 41%
    04:00 +7°C° 0 mm 1 mps 694 mmHg 41%
    05:00 +7°C° 0 mm 1 mps 694 mmHg 41%
    06:00 +7°C° 0 mm 1 mps 695 mmHg 42%
    07:00 +7°C° 0 mm 1 mps 695 mmHg 43%
    08:00 +7°C° 0 mm 1 mps 695 mmHg 43%
    09:00 +7°C° 0 mm 2 mps 695 mmHg 42%
    10:00 +7°C° 0 mm 2 mps 695 mmHg 41%
    11:00 +8°C° 0 mm 2 mps 696 mmHg 40%
    12:00 +8°C° 0.1 mm 2 mps 696 mmHg 42%
    13:00 +9°C° 0.1 mm 1 mps 696 mmHg 43%
    14:00 +9°C° 0.1 mm 1 mps 696 mmHg 45%
    15:00 +8°C° 0.1 mm 1 mps 696 mmHg 49%
    16:00 +8°C° 0.1 mm 1 mps 696 mmHg 53%
    17:00 +7°C° 0.1 mm 1 mps 697 mmHg 57%
    18:00 +7°C° 0.3 mm 1 mps 697 mmHg 60%
    19:00 +7°C° 0.3 mm 1 mps 698 mmHg 63%
    20:00 +7°C° 0.3 mm 1 mps 698 mmHg 66%
    21:00 +6°C° 0.1 mm 1 mps 698 mmHg 66%
    22:00 +5°C° 0.1 mm 2 mps 699 mmHg 67%
    23:00 +5°C° 0.1 mm 2 mps 699 mmHg 67%

    21 November, Wednesday

    Time Temperature Precipitation Wind Pressure Humidity
    00:00 +5°C° 0 mm 2 mps 699 mmHg 65%
    01:00 +4°C° 0 mm 2 mps 699 mmHg 64%
    02:00 +3°C° 0 mm 3 mps 699 mmHg 62%
    03:00 +4°C° 0 mm 2 mps 699 mmHg 60%
    04:00 +4°C° 0 mm 2 mps 699 mmHg 59%
    05:00 +3°C° 0 mm 2 mps 699 mmHg 57%
    06:00 +4°C° 0 mm 2 mps 699 mmHg 56%
    07:00 +4°C° 0 mm 2 mps 699 mmHg 54%
    08:00 +4°C° 0 mm 2 mps 699 mmHg 53%
    09:00 +6°C° 0 mm 2 mps 698 mmHg 49%
    10:00 +8°C° 0 mm 2 mps 697 mmHg 45%
    11:00 +10°C° 0 mm 2 mps 696 mmHg 41%
    12:00 +10°C° 0 mm 2 mps 695 mmHg 40%
    13:00 +12°C° 0 mm 2 mps 694 mmHg 40%
    14:00 +12°C° 0 mm 2 mps 693 mmHg 39%
    15:00 +11°C° 0 mm 1 mps 693 mmHg 43%
    16:00 +10°C° 0 mm 1 mps 693 mmHg 46%
    17:00 +8°C° 0 mm 1 mps 693 mmHg 49%
    18:00 +8°C° 0 mm 1 mps 693 mmHg 49%
    19:00 +8°C° 0 mm 1 mps 693 mmHg 48%
    20:00 +8°C° 0 mm 1 mps 693 mmHg 48%
    21:00 +8°C° 0 mm 1 mps 693 mmHg 48%
    22:00 +7°C° 0 mm 1 mps 693 mmHg 48%
    23:00 +7°C° 0 mm 1 mps 692 mmHg 48%

    22 November, Thursday

    Time Temperature Precipitation Wind Pressure Humidity
    00:00 +7°C° 0 mm 1 mps 692 mmHg 47%
    01:00 +7°C° 0 mm 1 mps 692 mmHg 47%
    02:00 +7°C° 0 mm 1 mps 692 mmHg 46%
    03:00 +7°C° 0 mm 1 mps 692 mmHg 46%
    04:00 +7°C° 0 mm 1 mps 691 mmHg 46%
    05:00 +7°C° 0 mm 1 mps 691 mmHg 46%
    06:00 +7°C° 0 mm 1 mps 691 mmHg 45%
    07:00 +8°C° 0 mm 1 mps 691 mmHg 45%
    08:00 +8°C° 0 mm 1 mps 692 mmHg 44%
    09:00 +9°C° 0 mm 1 mps 691 mmHg 42%
    10:00 +10°C° 0 mm 1 mps 691 mmHg 40%
    11:00 +11°C° 0 mm 1 mps 691 mmHg 38%
    12:00 +11°C° 0 mm 1 mps 691 mmHg 38%
    13:00 +11°C° 0 mm 1 mps 691 mmHg 38%
    14:00 +11°C° 0 mm 1 mps 690 mmHg 38%
    15:00 +11°C° 0 mm 1 mps 691 mmHg 40%
    16:00 +10°C° 0 mm 1 mps 691 mmHg 43%
    17:00 +10°C° 0 mm 1 mps 692 mmHg 45%
    18:00 +9°C° 0.1 mm 1 mps 692 mmHg 48%
    19:00 +9°C° 0.1 mm 1 mps 693 mmHg 51%
    20:00 +9°C° 0.1 mm 1 mps 693 mmHg 53%
    21:00 +9°C° 0.1 mm 1 mps 694 mmHg 56%
    22:00 +8°C° 0.1 mm 1 mps 694 mmHg 58%
    23:00 +8°C° 0.1 mm 1 mps 694 mmHg 60%

    23 November, Friday

    Time Temperature Precipitation Wind Pressure Humidity
    00:00 +8°C° 0 mm 1 mps 694 mmHg 60%
    01:00 +7°C° 0 mm 2 mps 695 mmHg 60%
    02:00 +7°C° 0 mm 2 mps 695 mmHg 61%
    03:00 +7°C° 0 mm 2 mps 695 mmHg 61%
    04:00 +7°C° 0 mm 2 mps 695 mmHg 61%
    05:00 +7°C° 0 mm 2 mps 695 mmHg 62%
    06:00 +7°C° 0 mm 2 mps 695 mmHg 61%
    07:00 +7°C° 0 mm 2 mps 695 mmHg 60%
    08:00 +7°C° 0 mm 2 mps 695 mmHg 59%
    09:00 +9°C° 0 mm 2 mps 695 mmHg 56%
    10:00 +10°C° 0 mm 2 mps 695 mmHg 52%
    11:00 +12°C° 0 mm 2 mps 694 mmHg 49%
    12:00 +13°C° 0 mm 2 mps 694 mmHg 48%
    13:00 +13°C° 0 mm 2 mps 693 mmHg 48%
    14:00 +14°C° 0 mm 2 mps 693 mmHg 47%
    15:00 +13°C° 0 mm 2 mps 693 mmHg 51%
    16:00 +12°C° 0 mm 1 mps 693 mmHg 54%
    17:00 +11°C° 0 mm 1 mps 693 mmHg 58%
    18:00 +11°C° 0 mm 1 mps 693 mmHg 58%
    19:00 +10°C° 0 mm 1 mps 693 mmHg 58%
    20:00 +10°C° 0 mm 1 mps 693 mmHg 59%
    21:00 +10°C° 0 mm 1 mps 693 mmHg 59%
    22:00 +10°C° 0 mm 1 mps 693 mmHg 60%
    23:00 +10°C° 0 mm 1 mps 693 mmHg 61%
    Show more